This demonstration page uses our WeatherBlox Daily Observations layout. Learn more.

38.88101, -77.10428

Hourly Observations for September 15, 2018

Temp ( °F °C ) Dew Point ( °F °C ) Humidity (%) Winds ( mph kmh ) Pressure ( in mb ) Visibility ( mi km ) Precip ( " mm )
12:52 am 00:52 Cloudy 74 23.3 69 20.6 85 85 NE 9 15 30.15 1021 10 16.0934 0 0
1:04 am 01:04 Cloudy 74 23.3 69 20.6 85 85 NE 12 19 30.15 1021 10 16.0934 0 0
1:17 am 01:17 Cloudy 73 22.8 69 20.6 87 87 NE 13 20 30.15 1021 10 16.0934 0 0
1:52 am 01:52 Cloudy 73 22.8 69 20.6 87 87 NE 12 19 30.14 1021 10 16.0934 0 0
2:05 am 02:05 Cloudy with Light Drizzle 72 22.2 69 20.6 91 91 NE 14 22 30.15 1021 6 9.65604 0 0.0254
2:26 am 02:26 Cloudy with Light Drizzle 72 22.2 69 20.6 91 91 NE 14 22 30.12 1020 5 8.0467 0 0.0254
2:34 am 02:34 Cloudy with Light Drizzle 72 22.2 69 20.6 91 91 ENE 13 20 30.15 1021 8 12.87472 0 0.0254
2:52 am 02:52 Cloudy with Light Drizzle 72 22.2 69 20.6 91 91 NE 10 17 30.13 1020 4 6.43736 0 0.0254
3:52 am 03:52 Cloudy 72 22.2 69 20.6 91 91 NNE 8 13 30.12 1020 10 16.0934 0 0.0254
4:52 am 04:52 Cloudy with Light Drizzle 71 21.7 68 20 90 90 NE 12 19 30.12 1020 9 14.48406 0 0.0254
5:52 am 05:52 Cloudy 71 21.7 67 19.4 87 87 NE 10 17 30.14 1021 10 16.0934 0 0.0254
6:52 am 06:52 Cloudy 71 21.7 67 19.4 87 87 NE 12 19 30.15 1021 10 16.0934 0 0
7:52 am 07:52 Cloudy 70 21.1 67 19.4 90 90 NE 12 19 30.16 1022 10 16.0934 0 0
8:32 am 08:32 Cloudy 71 21.7 67 19.4 87 87 NE 13 20 30.18 1022 10 16.0934 0 0
8:52 am 08:52 Cloudy 72 22.2 67 19.4 84 84 NE 14 22 30.17 1022 10 16.0934 0 0
9:18 am 09:18 Cloudy 72 22.2 67 19.4 84 84 NE 10 17 30.18 1022 10 16.0934 0 0
9:52 am 09:52 Cloudy 73 22.8 67 19.4 81 81 ENE 10 17 30.17 1022 10 16.0934 0 0
10:42 am 10:42 Mostly Cloudy 75 23.9 68 20 79 79 NE 15 24 30.18 1022 10 16.0934 0 0
10:52 am 10:52 Mostly Cloudy 76 24.4 69 20.6 79 79 NE 9 15 30.18 1022 10 16.0934 0 0
11:19 am 11:19 Mostly Cloudy 77 25 69 20.6 77 77 NE 13 20 30.18 1022 10 16.0934 0 0
11:37 am 11:37 Mostly Cloudy 77 25 69 20.6 77 77 NE 12 19 30.18 1022 10 16.0934 0 0
11:52 am 11:52 Mostly Cloudy 79 26.1 69 20.6 72 72 ENE 10 17 30.17 1022 10 16.0934 0 0
12:16 pm 12:16 Cloudy 80 26.7 70 21.1 71 71 NE 10 17 30.15 1021 10 16.0934 0 0
12:23 pm 12:23 Cloudy 80 26.7 70 21.1 71 71 NE 12 19 30.15 1021 10 16.0934 0 0
12:37 pm 12:37 Mostly Cloudy 81 27.2 69 20.6 67 67 NE 14 22 30.15 1021 10 16.0934 0 0
12:52 pm 12:52 Mostly Cloudy 81 27.2 69 20.6 67 67 NE 12 19 30.15 1021 10 16.0934 0 0
1:01 pm 13:01 Mostly Cloudy 80 26.7 69 20.6 69 69 NE 10 17 30.15 1021 10 16.0934 0 0
1:44 pm 13:44 Cloudy 80 26.7 69 20.6 69 69 NE 12 19 30.15 1021 10 16.0934 0 0
1:52 pm 13:52 Cloudy 81 27.2 69 20.6 67 67 NE 10 17 30.15 1021 10 16.0934 0 0
1:54 pm 13:54 Cloudy 81 27.2 69 20.6 67 67 NE 12 19 30.15 1021 10 16.0934 0 0
2:15 pm 14:15 Mostly Cloudy 82 27.8 70 21.1 67 67 NE 12 19 30.15 1021 10 16.0934 0 0
2:47 pm 14:47 Cloudy 81 27 70 21 70 70 ENE 10 17 30.15 1021 10 16.0934 0 0
2:52 pm 14:52 Cloudy 80 26.7 69 20.6 69 69 ENE 12 19 30.14 1021 10 16.0934 0 0
3:52 pm 15:52 Cloudy 80 26.7 69 20.6 69 69 NE 13 20 30.14 1021 10 16.0934 0 0
4:52 pm 16:52 Cloudy 80 26.7 69 20.6 69 69 E 9 15 30.13 1020 10 16.0934 0 0
5:52 pm 17:52 Cloudy 79 26.1 68 20 69 69 ENE 14 22 30.13 1020 10 16.0934 0 0
6:52 pm 18:52 Cloudy 78 25.6 69 20.6 74 74 E 8 13 30.14 1021 10 16.0934 0 0
7:52 pm 19:52 Mostly Cloudy 76 24.4 69 20.6 79 79 E 6 9 30.15 1021 10 16.0934 0 0
8:52 pm 20:52 Mostly Cloudy 75 23.9 68 20 79 79 E 6 9 30.17 1022 10 16.0934 0 0
9:52 pm 21:52 Mostly Cloudy 74 23.3 68 20 82 82 E 6 9 30.17 1022 10 16.0934 0 0
10:52 pm 22:52 Mostly Cloudy 74 23.3 67 19.4 79 79 ENE 9 15 30.17 1022 10 16.0934 0 0
11:52 pm 23:52 Mostly Cloudy 72 22.2 66 18.9 82 82 NE 7 11 30.17 1022 10 16.0934 0 0

Powered by AerisWeather